Grizzly Air Cargo 5128


CYYC
Calgary International Airport
Calgary, CA
PANC
Ted Stevens Anchorage International Airport
Anchorage, US

Activity Log

Date Flight Route Aircraft Duration
06/26/2019 GRZ528 CYYC IPSIT Q810 SETGA YQU NCA10 YAK J501 JOH YESKA6 PANC B738 3h 27m

Route Details

Aircraft Information
Primary: Boeing 737-800BCF
Backup: Boeing 727-200F
Route Data
Distance: 1346nm
Sched. Duration: 3h 39m
Avg. Duration: 3h 27m (-12m)
Times Flown: 1
Recm'd Route: BANFF2 IPSIT Q810 EPLAN 54N18 5N625 MITOM JOH ELLAM5
Planned Altitude: 38,000ft
Origin Wx: CYYC 261200Z 32004KT 40SM FEW050 SCT070 SCT210 11/02 A2984 RMK SC2AC1CI1 CI TR WND ESTD SLP112 DENSITY ALT 4100FT
Dest. Wx: PANC 261253Z 16004KT 10SM FEW038 BKN055 OVC080 07/04 A3003 RMK AO2 SLP171 T00670039
Notes:

Financial History
Total Freight: 22,176lbs
Average Load: 22,176lbs/flt
Fuel Used: 15,815lbs
Avg. Fuel Used: 15,815lbs/flt
Fuel Expense: $4,112
Avg. Fuel Expense: $4,112
Avg. Fuel Cost: $0.26/lbs
Total Gross Income: $31,490
Pilot Pay: $229
Total Expenses: $3,453
Total Revenue: $23,131
Average Revenue: $31,489.92